Weather Roundup
Issued by NWS Springfield, MO

Home | Current Version | Previous Version | Text Only | Print | Product List | Glossary On
Versions: 1 2 3 4 5 6 7 8 9 10 11 12 13 14 15 16 17 18 19 20 21 22 23 24 25 26 27 28 29 30 31 32 33 34 35 36 37 38 39 40 41 42 43 44 45 46 47 48 49 50
000
NZUS99 KSGF 191007
HRRSGF

HOURLY WEATHER
NATIONAL WEATHER SERVICE SPRINGFIELD MO
500 AM CDT FRI SEP 19 2014

......SGF CWA......

CITY           SKY/WX    TMP DP  RH WIND       PRES   REMARKS
SPRINGFIELD    CLEAR     62  59  90 S7        30.02S
JOPLIN         CLEAR     63  61  93 SE7       30.00S
WEST PLAINS    FOG       55  53  93 CALM      30.05F VSB 3/4
ROLLA          CLEAR     56  54  93 E6        30.05R FOG
OSAGE BEACH    CLOUDY    55  54  94 CALM      30.05S VSB 1/2
BRANSON        MOCLDY    63  63 100 CALM      30.04S FOG

......SURROUNDING SGF CWA......

CITY           SKY/WX    TMP DP  RH WIND       PRES   REMARKS
CHANUTE        PTCLDY    63  62  97 SE9       29.99R
PARSONS        CLEAR     63  62  97 SE5       30.00R
COFFEYVILLE    CLEAR     64  62  93 SE6       29.98S
EMPORIA        MOCLDY    62  61  96 SE5       29.98S
GROVE OK       CLEAR     63  63 100 CALM      30.00S FOG
ROGERS AR      CLEAR     64  61  90 E6        30.03S
SILOAM SPRINGS CLEAR     63  57  82 E3        30.02S
HARRISON AR    FOG       62  62 100 SE3       30.04R VSB 1/4
NEAR YELLVILLE CLOUDY    63  57  82 CALM      30.03S

......KANSAS AND MISSOURI......

CITY           SKY/WX    TMP DP  RH WIND       PRES   REMARKS
KANSAS CTY INT CLOUDY    62  61  96 SE12      30.00F FOG
DOWNTOWN KC    CLOUDY    64  61  90 SE8       30.00F
COLUMBIA       CLEAR     58  55  90 E7          N/A
SEDALIA        FOG       59  58  96 SE8       30.04S VSB 1/4
ST JOSEPH      CLOUDY    61  60  97 SE6       30.00S FOG
ST LOUIS       CLEAR     57  53  86 SE5       30.08S
SPIRIT OF STL  CLEAR     52  51  97 CALM      30.07S FOG
KIRKSVILLE     CLEAR     52  50  93 SE6       30.07R
WICHITA        CLEAR     65  62  90 S6        29.95S
TOPEKA         CLOUDY    63  62  97 E5        29.99S
OLATHE         FOG       60  60 100 S8        30.00S VSB 1

......TENNESSEE......

CITY           SKY/WX    TMP DP  RH WIND       PRES   REMARKS
MEMPHIS        PTCLDY    69  65  86 CALM      29.99S
NASHVILLE      MOCLDY    60  57  89 NE3       30.04S

......ARKANSAS.......

CITY           SKY/WX    TMP DP  RH WIND       PRES   REMARKS
FAYETTEVILLE   MOCLDY    61  61 100 CALM      30.01S FOG
FT SMITH       CLOUDY    69  64  84 E7        29.98S
LITTLE ROCK    PTCLDY    67  62  84 E5        29.99R

......OKLAHOMA.......

CITY           SKY/WX    TMP DP  RH WIND       PRES   REMARKS
TULSA          MOCLDY    67  66  97 SE6       29.97R
PONCA CITY     CLEAR     66  63  90 SE7       29.96R
MCALESTER      MOCLDY    70  67  90 CALM      29.97R
OKLAHOMA CITY  PTCLDY    67  64  90 CALM      29.95S

......IOWA............

CITY           SKY/WX    TMP DP  RH WIND       PRES   REMARKS
DES MOINES     PTCLDY    58  53  84 SE9       30.01F
QUAD CITIES    CLEAR     48  47  96 E5        30.10S FOG

......ILLINOIS........

CITY           SKY/WX    TMP DP  RH WIND       PRES   REMARKS
QUINCY         CLEAR     54  49  83 SE6       30.08R
CHICAGO        CLEAR     54  51  90 S7        30.13F



USA.gov is the U.S. government's official web portal to all federal, state and local government web resources and services.